Change the Weather History Date:

Thursday, October 3, 2013

  Actual Average Record
Temperature  
Mean Temperature 64 °F -  
Max Temperature 71 °F 58 °F 82 °F (2011)
Min Temperature 57 °F 45 °F 42 °F (1996)
Degree Days  
Heating Degree Days 1    
Growing Degree Days 14 (Base 50)    
Moisture  
Dew Point 57 °F    
Average Humidity 78    
Maximum Humidity 83    
Minimum Humidity 68    
Precipitation  
Precipitation 0.00 in - - ()
Sea Level Pressure  
Sea Level Pressure 29.87 in    
Wind  
Wind Speed 10 mph ()    
Max Wind Speed 16 mph    
Max Gust Speed -    
Visibility 6.1 miles    
Events Rain    
Averages and records for this station are not official NWS values.
T = Trace of Precipitation, MM = Missing Value Source: Averaged Metar Reports

Daily Weather History Graph

Daily Weather History Graph

Search for Another Location

Airport or City:

Trip Planner

Search our weather history database for the weather conditions in past years. The results will help you decide how hot, cold, wet, or windy it might be!

Date:

Astronomy

Oct. 03, 2013 Rise Set
Actual Time 7:52 AM CEST 7:24 PM CEST
Civil Twilight 7:20 AM CEST 7:55 PM CEST
Nautical Twilight 6:44 AM CEST 8:32 PM CEST
Astronomical Twilight 6:06 AM CEST 9:09 PM CEST
Moon 6:04 AM CEST (10/3) 6:27 PM CEST (10/3)
Length of Visible Light 12h 35m
Length of Day
11h 31m
Waning Crescent, 3% of the Moon is Illuminated
Oct 3
Waning Crescent
Oct 5
New
Oct 12
First Quarter
Oct 19
Full
Oct 27
Last Quarter

Hourly Weather History & Observations

Time (CEST) Temp. Dew Point Humidity Pressure Visibility Wind Dir Wind Speed Gust Speed Precip Events Conditions
12:00 AM 62.6 °F 55.4 °F 77% 29.92 in - East 11.5 mph - N/A   Clear
12:30 AM 62.6 °F 55.4 °F 77% 29.92 in - East 9.2 mph - N/A   Clear
1:00 AM 60.8 °F 55.4 °F 82% 29.92 in - East 9.2 mph - N/A   Clear
1:30 AM 60.8 °F 55.4 °F 82% 29.92 in - East 9.2 mph - N/A   Clear
2:00 AM 60.8 °F 53.6 °F 77% 29.92 in - East 11.5 mph - N/A   Clear
2:30 AM 60.8 °F 53.6 °F 77% 29.92 in - East 10.4 mph - N/A   Clear
3:00 AM 59.0 °F 53.6 °F 82% 29.92 in - East 11.5 mph - N/A   Clear
3:30 AM 59.0 °F 53.6 °F 82% 29.92 in - East 10.4 mph - N/A   Clear
4:00 AM 59.0 °F 53.6 °F 82% 29.89 in - East 11.5 mph - N/A   Clear
4:30 AM 59.0 °F 53.6 °F 82% 29.89 in - East 12.7 mph - N/A   Clear
5:00 AM 57.2 °F 51.8 °F 82% 29.89 in - East 12.7 mph - N/A   Clear
5:30 AM 57.2 °F 51.8 °F 82% 29.89 in - East 13.8 mph - N/A   Clear
6:00 AM 57.2 °F 51.8 °F 82% 29.89 in - East 13.8 mph - N/A   Clear
6:30 AM 57.2 °F 51.8 °F 82% 29.89 in - East 12.7 mph - N/A   Clear
7:00 AM 57.2 °F 51.8 °F 82% 29.86 in - East 12.7 mph - N/A   Clear
7:30 AM 57.2 °F 51.8 °F 82% 29.86 in - ESE 13.8 mph - N/A   Clear
8:00 AM 57.2 °F 50.0 °F 77% 29.86 in - ESE 15.0 mph - N/A   Clear
8:30 AM 57.2 °F 50.0 °F 77% 29.86 in - East 13.8 mph - N/A   Clear
9:00 AM 57.2 °F 51.8 °F 82% 29.86 in - ESE 12.7 mph - N/A   Clear
9:30 AM 59.0 °F 51.8 °F 77% 29.86 in - ESE 15.0 mph - N/A   Clear
10:00 AM 59.0 °F 51.8 °F 77% 29.86 in - ESE 13.8 mph - N/A   Clear
10:30 AM 60.8 °F 51.8 °F 72% 29.86 in - ESE 13.8 mph - N/A   Clear
11:00 AM 62.6 °F 53.6 °F 72% 29.86 in - ESE 13.8 mph - N/A   Clear
11:30 AM 62.6 °F 53.6 °F 72% 29.86 in - ESE 16.1 mph - N/A   Clear
12:00 PM 64.4 °F 55.4 °F 73% 29.86 in - ESE 15.0 mph - N/A   Clear
12:30 PM 66.2 °F 57.2 °F 73% 29.86 in - SE 11.5 mph - N/A   Clear
1:00 PM 68.0 °F 59.0 °F 73% 29.86 in - SSE 8.1 mph - N/A   Clear
1:30 PM 69.8 °F 59.0 °F 68% 29.86 in - SSE 10.4 mph - N/A   Clear
2:00 PM 69.8 °F 60.8 °F 73% 29.86 in - SE 8.1 mph - N/A   Clear
2:30 PM 71.6 °F 60.8 °F 69% 29.86 in - SE 9.2 mph - N/A   Clear
3:00 PM 71.6 °F 62.6 °F 73% 29.86 in - SSE 11.5 mph - N/A   Clear
3:30 PM 69.8 °F 62.6 °F 78% 29.86 in 6.2 mi SE 9.2 mph - N/A   Mostly Cloudy
4:00 PM 71.6 °F 62.6 °F 73% 29.86 in 6.2 mi SSE 8.1 mph - N/A   Mostly Cloudy
4:30 PM 71.6 °F 62.6 °F 73% 29.83 in 6.2 mi SE 8.1 mph - N/A   Mostly Cloudy
5:00 PM 71.6 °F 64.4 °F 78% 29.83 in 6.2 mi SE 9.2 mph - N/A   Mostly Cloudy
5:30 PM 71.6 °F 64.4 °F 78% 29.83 in 6.2 mi SSE 8.1 mph - N/A   Mostly Cloudy
6:00 PM 71.6 °F 64.4 °F 78% 29.86 in 6.2 mi SSE 6.9 mph - N/A   Mostly Cloudy
6:30 PM 71.6 °F 64.4 °F 78% 29.86 in 6.2 mi SSE 5.8 mph - N/A   Mostly Cloudy
7:00 PM 71.6 °F 64.4 °F 78% 29.86 in - SSE 8.1 mph - N/A   Clear
7:30 PM 71.6 °F 62.6 °F 73% 29.86 in - SE 8.1 mph - N/A   Clear
8:00 PM 69.8 °F 62.6 °F 78% 29.86 in - SSE 10.4 mph - N/A   Clear
8:30 PM 69.8 °F 62.6 °F 78% 29.86 in - SSE 8.1 mph - N/A   Clear
9:00 PM 69.8 °F 62.6 °F 78% 29.86 in 6.2 mi SE 9.2 mph - N/A   Mostly Cloudy
9:30 PM 69.8 °F 62.6 °F 78% 29.86 in 6.2 mi SSE 8.1 mph - N/A Rain Light Rain Showers
10:00 PM 68.0 °F 62.6 °F 83% 29.86 in - SSE 6.9 mph - N/A   Clear
10:30 PM 68.0 °F 62.6 °F 83% 29.86 in - SE 8.1 mph - N/A   Clear
11:00 PM 68.0 °F 62.6 °F 83% 29.89 in 6.2 mi South 9.2 mph - N/A Rain Light Rain Showers
11:30 PM 68.0 °F 62.6 °F 83% 29.89 in 5.0 mi South 9.2 mph - N/A Rain Light Rain Showers